When you browse on this site, cookies collect data to enhance your experience and personalize the content and advertising you see.
Visit our Privacy Policy to learn more. By continuing to use the site, you agree to this use of cookies and data.

Meteo pe oră la Kumamoto

Astăzi, 5 August, Miercuri

Timp Temperatura Precipitaţii Vânt Presiune Umiditate
00:00 +27°C° 0 mm 0 m/s 760 mmHg 73%
01:00 +27°C° 0 mm 0 m/s 760 mmHg 75%
02:00 +26°C° 0 mm 0 m/s 760 mmHg 76%
03:00 +28°C° 0 mm 1 m/s 760 mmHg 74%
04:00 +28°C° 0 mm 1 m/s 760 mmHg 75%
05:00 +28°C° 0 mm 1 m/s 761 mmHg 76%
06:00 +26°C° 0 mm 0 m/s 761 mmHg 77%
07:00 +30°C° 0 mm 1 m/s 761 mmHg 71%
08:00 +31°C° 0 mm 1 m/s 760 mmHg 65%
09:00 +33°C° 0 mm 1 m/s 761 mmHg 57%
10:00 +35°C° 0 mm 1 m/s 761 mmHg 52%
11:00 +37°C° 0 mm 2 m/s 761 mmHg 46%
12:00 +38°C° 0 mm 2 m/s 761 mmHg 41%
13:00 +38°C° 0 mm 3 m/s 760 mmHg 41%
14:00 +37°C° 0 mm 3 m/s 760 mmHg 42%
15:00 +37°C° 0 mm 3 m/s 759 mmHg 43%
16:00 +36°C° 0 mm 3 m/s 759 mmHg 49%
17:00 +35°C° 0 mm 3 m/s 759 mmHg 54%
18:00 +34°C° 0 mm 3 m/s 759 mmHg 59%
19:00 +32°C° 0 mm 2 m/s 759 mmHg 65%
20:00 +31°C° 0 mm 2 m/s 759 mmHg 71%
21:00 +29°C° 0 mm 2 m/s 760 mmHg 77%
22:00 +29°C° 0 mm 2 m/s 760 mmHg 79%
23:00 +29°C° 0 mm 2 m/s 760 mmHg 80%

Mâine, 6 August, Joi

Timp Temperatura Precipitaţii Vânt Presiune Umiditate
00:00 +29°C° 0 mm 2 m/s 760 mmHg 82%
01:00 +29°C° 0 mm 1 m/s 759 mmHg 82%
02:00 +28°C° 0 mm 1 m/s 759 mmHg 83%
03:00 +28°C° 0 mm 1 m/s 759 mmHg 84%
04:00 +28°C° 0 mm 1 m/s 759 mmHg 83%
05:00 +28°C° 0 mm 1 m/s 759 mmHg 83%
06:00 +28°C° 0 mm 1 m/s 759 mmHg 82%
07:00 +29°C° 0 mm 1 m/s 759 mmHg 75%
08:00 +31°C° 0 mm 2 m/s 759 mmHg 67%
09:00 +32°C° 0 mm 2 m/s 759 mmHg 59%
10:00 +34°C° 0 mm 3 m/s 759 mmHg 56%
11:00 +35°C° 0 mm 4 m/s 758 mmHg 52%
12:00 +36°C° 0 mm 4 m/s 758 mmHg 49%
13:00 +36°C° 0 mm 4 m/s 758 mmHg 50%
14:00 +36°C° 0 mm 5 m/s 757 mmHg 50%
15:00 +36°C° 0 mm 5 m/s 757 mmHg 50%
16:00 +35°C° 0.3 mm 4 m/s 757 mmHg 56%
17:00 +34°C° 0.3 mm 4 m/s 757 mmHg 63%
18:00 +33°C° 0.3 mm 3 m/s 757 mmHg 69%
19:00 +31°C° 0.2 mm 3 m/s 757 mmHg 72%
20:00 +30°C° 0.2 mm 3 m/s 757 mmHg 75%
21:00 +29°C° 0.2 mm 2 m/s 757 mmHg 78%
22:00 +29°C° 0 mm 2 m/s 757 mmHg 79%
23:00 +29°C° 0 mm 2 m/s 757 mmHg 80%

Poimâine, 7 August, Vineri

Timp Temperatura Precipitaţii Vânt Presiune Umiditate
00:00 +29°C° 0 mm 2 m/s 757 mmHg 80%
01:00 +29°C° 0 mm 2 m/s 757 mmHg 81%
02:00 +28°C° 0 mm 2 m/s 756 mmHg 81%
03:00 +28°C° 0 mm 2 m/s 756 mmHg 81%
04:00 +28°C° 0.1 mm 2 m/s 756 mmHg 80%
05:00 +28°C° 0.1 mm 2 m/s 756 mmHg 80%
06:00 +28°C° 0.1 mm 2 m/s 756 mmHg 80%
07:00 +29°C° 0.4 mm 2 m/s 756 mmHg 75%
08:00 +31°C° 0.4 mm 3 m/s 756 mmHg 71%
09:00 +33°C° 0.4 mm 3 m/s 756 mmHg 66%
10:00 +33°C° 0.8 mm 4 m/s 756 mmHg 65%
11:00 +34°C° 0.8 mm 4 m/s 756 mmHg 64%
12:00 +35°C° 0.8 mm 5 m/s 756 mmHg 63%
13:00 +35°C° 0.6 mm 5 m/s 755 mmHg 63%
14:00 +35°C° 0.6 mm 5 m/s 755 mmHg 63%
15:00 +35°C° 0.6 mm 5 m/s 755 mmHg 63%
16:00 +34°C° 0.3 mm 5 m/s 755 mmHg 66%
17:00 +33°C° 0.3 mm 5 m/s 755 mmHg 70%
18:00 +32°C° 0.3 mm 4 m/s 755 mmHg 73%
19:00 +32°C° 0.2 mm 4 m/s 755 mmHg 76%
20:00 +30°C° 0.2 mm 3 m/s 755 mmHg 79%
21:00 +29°C° 0.2 mm 3 m/s 755 mmHg 81%
22:00 +29°C° 0 mm 3 m/s 755 mmHg 81%
23:00 +29°C° 0 mm 3 m/s 755 mmHg 82%

8 August, Sâmbătă

Timp Temperatura Precipitaţii Vânt Presiune Umiditate
00:00 +29°C° 0 mm 3 m/s 755 mmHg 82%
01:00 +28°C° 0.1 mm 3 m/s 755 mmHg 82%
02:00 +28°C° 0.1 mm 3 m/s 755 mmHg 82%
03:00 +28°C° 0.1 mm 3 m/s 754 mmHg 82%
04:00 +28°C° 0 mm 3 m/s 754 mmHg 82%
05:00 +28°C° 0 mm 3 m/s 755 mmHg 82%
06:00 +28°C° 0 mm 2 m/s 755 mmHg 82%
07:00 +29°C° 0.1 mm 3 m/s 755 mmHg 78%
08:00 +30°C° 0.1 mm 3 m/s 755 mmHg 74%
09:00 +33°C° 0.1 mm 3 m/s 755 mmHg 70%
10:00 +33°C° 0.2 mm 4 m/s 755 mmHg 66%
11:00 +34°C° 0.2 mm 5 m/s 755 mmHg 63%
12:00 +35°C° 0.2 mm 5 m/s 755 mmHg 59%
13:00 +35°C° 0.2 mm 6 m/s 755 mmHg 59%
14:00 +35°C° 0.2 mm 6 m/s 754 mmHg 59%
15:00 +35°C° 0.2 mm 6 m/s 754 mmHg 60%
16:00 +34°C° 0.4 mm 6 m/s 754 mmHg 64%
17:00 +33°C° 0.4 mm 5 m/s 755 mmHg 68%
18:00 +32°C° 0.4 mm 5 m/s 755 mmHg 72%
19:00 +32°C° 0.2 mm 4 m/s 755 mmHg 75%
20:00 +30°C° 0.2 mm 4 m/s 755 mmHg 77%
21:00 +29°C° 0.2 mm 3 m/s 756 mmHg 80%
22:00 +29°C° 0 mm 3 m/s 756 mmHg 81%
23:00 +29°C° 0 mm 3 m/s 756 mmHg 81%

9 August, Duminică

Timp Temperatura Precipitaţii Vânt Presiune Umiditate
00:00 +28°C° 0 mm 3 m/s 756 mmHg 82%
01:00 +28°C° 0 mm 2 m/s 756 mmHg 82%
02:00 +28°C° 0 mm 2 m/s 756 mmHg 83%
03:00 +28°C° 0 mm 2 m/s 755 mmHg 83%
04:00 +28°C° 0 mm 2 m/s 756 mmHg 83%
05:00 +28°C° 0 mm 2 m/s 756 mmHg 82%
06:00 +28°C° 0 mm 2 m/s 756 mmHg 82%
07:00 +29°C° 0 mm 2 m/s 756 mmHg 74%
08:00 +31°C° 0 mm 2 m/s 756 mmHg 66%
09:00 +34°C° 0 mm 2 m/s 757 mmHg 57%
10:00 +35°C° 0 mm 2 m/s 757 mmHg 54%
11:00 +36°C° 0 mm 3 m/s 757 mmHg 51%
12:00 +37°C° 0 mm 4 m/s 757 mmHg 48%
13:00 +37°C° 0 mm 5 m/s 756 mmHg 48%
14:00 +37°C° 0 mm 5 m/s 756 mmHg 48%
15:00 +38°C° 0 mm 6 m/s 756 mmHg 48%
16:00 +36°C° 0.1 mm 5 m/s 756 mmHg 53%
17:00 +35°C° 0.1 mm 4 m/s 756 mmHg 58%
18:00 +34°C° 0.1 mm 3 m/s 756 mmHg 63%
19:00 +33°C° 0 mm 3 m/s 757 mmHg 67%
20:00 +31°C° 0 mm 2 m/s 757 mmHg 70%
21:00 +30°C° 0 mm 2 m/s 758 mmHg 73%
22:00 +30°C° 0 mm 2 m/s 758 mmHg 74%
23:00 +30°C° 0 mm 2 m/s 758 mmHg 76%

10 August, Luni

Timp Temperatura Precipitaţii Vânt Presiune Umiditate
00:00 +29°C° 0 mm 2 m/s 758 mmHg 78%
01:00 +29°C° 0 mm 2 m/s 757 mmHg 78%
02:00 +29°C° 0 mm 2 m/s 757 mmHg 78%
03:00 +28°C° 0 mm 2 m/s 757 mmHg 78%
04:00 +28°C° 0 mm 2 m/s 757 mmHg 77%
05:00 +28°C° 0 mm 2 m/s 757 mmHg 77%
06:00 +28°C° 0 mm 2 m/s 757 mmHg 77%
07:00 +30°C° 0 mm 2 m/s 757 mmHg 71%
08:00 +32°C° 0 mm 2 m/s 757 mmHg 65%
09:00 +35°C° 0 mm 2 m/s 758 mmHg 59%
10:00 +36°C° 0 mm 3 m/s 758 mmHg 56%
11:00 +37°C° 0 mm 4 m/s 758 mmHg 53%
12:00 +39°C° 0 mm 5 m/s 758 mmHg 51%
13:00 +37°C° 0.5 mm 5 m/s 758 mmHg 55%
14:00 +37°C° 0.5 mm 5 m/s 757 mmHg 59%
15:00 +36°C° 0.5 mm 5 m/s 757 mmHg 64%
16:00 +35°C° 0.5 mm 5 m/s 757 mmHg 66%
17:00 +35°C° 0.5 mm 4 m/s 757 mmHg 68%
18:00 +34°C° 0.5 mm 4 m/s 757 mmHg 70%
19:00 +33°C° 0.1 mm 4 m/s 758 mmHg 71%
20:00 +31°C° 0.1 mm 3 m/s 758 mmHg 72%
21:00 +30°C° 0.1 mm 3 m/s 759 mmHg 74%
22:00 +30°C° 0 mm 3 m/s 759 mmHg 74%
23:00 +30°C° 0 mm 3 m/s 759 mmHg 75%
Arată mai mult